User: anonymous   Login
Location: Sternwarte_Laufen
(47.9344°N, 12.9346°E)
Time: 21:14:54
(UTC+02:00)
Language:

ISS - Orbit

View from above orbital plane
View from above orbital plane
View from above satellite
View from above satellite

Ground track
Ground track

The orbit data is extracted from the following two-line orbital elements,

1 25544U 98067A   17265.51632661  .00016717  00000-0  10270-3 0  9020
2 25544  51.6384 273.1331 0004080 309.2624  50.8167 15.54212263 36880
Epoch (UTC): 22 September 2017 12:23:30
Eccentricity: 0.0004080
inclination: 51.6384°
perigee height: 401 km
apogee height: 407 km
right ascension of ascending node: 273.1331°
argument of perigee: 309.2624°
revolutions per day: 15.54212263
mean anomaly at epoch: 50.8167°
orbit number at epoch: 3688

The dashed part of the orbit path shows where the satellite is in the earth's shadow,  

DLR